Weather History for Childress, TX

Change the Weather History Date:

Thursday, May 3, 2012

  Actual Average Record
Temperature  
Mean Temperature 85 °F 68 °F  
Max Temperature 102 °F 81 °F 103 °F (1996)
Min Temperature 68 °F 54 °F 32 °F (2013)
Degree Days  
Heating Degree Days 0 2  
Month to date heating degree days 0 6  
Since 1 July heating degree days 2583 3094  
Cooling Degree Days 20 4  
Month to date cooling degree days 56 12  
Year to date cooling degree days 287 103  
Growing Degree Days 35 (Base 50)    
Moisture  
Dew Point 50 °F    
Average Humidity 43    
Maximum Humidity 78    
Minimum Humidity 7    
Precipitation  
Precipitation 0.00 in 0.08 in 3.00 in (1941)
Month to date precipitation 0.00 0.24  
Year to date precipitation 4.58 5.67  
Sea Level Pressure  
Sea Level Pressure 29.73 in    
Wind  
Wind Speed 14 mph (SSW)    
Max Wind Speed 30 mph    
Max Gust Speed 37 mph    
Visibility 10 miles    
Events      
T = Trace of Precipitation, MM = Missing Value Source: NWS Daily Summary

Daily Weather History Graph

Daily Weather History Graph

Search for Another Location

Airport:

Trip Planner

Search our weather history database for the weather conditions in past years. The results will help you decide how hot, cold, wet, or windy it might be!

Date:

Astronomy

May. 03, 2012 Rise Set
Actual Time 6:48 AM CDT 8:27 PM CDT
Civil Twilight 6:21 AM CDT 8:54 PM CDT
Nautical Twilight 5:49 AM CDT 9:27 PM CDT
Astronomical Twilight 5:15 AM CDT 10:01 PM CDT
Moon 5:58 PM CDT (5/3) 4:47 AM CDT (5/3)
Length of Visible Light 14h 33m
Length of Day
13h 38m
Waxing Gibbous, 91% of the Moon is Illuminated
May 3
Waxing Gibbous
May 5
Full
May 12
Last Quarter
May 20
New
May 28
First Quarter

Hourly Weather History & Observations

Time (CDT) Temp. Heat Index Dew Point Humidity Pressure Visibility Wind Dir Wind Speed Gust Speed Precip Events Conditions
12:53 AM 81.0 °F 81.6 °F 60.1 °F 49% 29.70 in 10.0 mi South 15.0 mph 23.0 mph N/A   Clear
1:53 AM 79.0 °F - 61.0 °F 54% 29.70 in 10.0 mi South 12.7 mph - N/A   Clear
2:53 AM 79.0 °F - 63.0 °F 58% 29.69 in 10.0 mi SW 17.3 mph - N/A   Clear
3:53 AM 75.9 °F - 63.0 °F 64% 29.70 in 10.0 mi SW 13.8 mph - N/A   Clear
4:53 AM 73.9 °F - 63.0 °F 68% 29.71 in 10.0 mi SW 11.5 mph - N/A   Clear
5:53 AM 71.1 °F - 62.1 °F 73% 29.72 in 10.0 mi SW 9.2 mph - N/A   Clear
6:53 AM 70.0 °F - 62.1 °F 76% 29.75 in 9.0 mi SSW 10.4 mph - N/A   Clear
7:53 AM 72.0 °F - 63.0 °F 73% 29.76 in 9.0 mi SSW 8.1 mph - N/A   Clear
8:53 AM 75.0 °F - 63.0 °F 66% 29.77 in 9.0 mi SSW 9.2 mph - N/A   Clear
9:53 AM 80.1 °F 80.9 °F 60.1 °F 50% 29.78 in 10.0 mi SSW 10.4 mph - N/A   Clear
10:53 AM 84.9 °F 84.2 °F 57.9 °F 40% 29.78 in 10.0 mi South 13.8 mph - N/A   Clear
11:53 AM 90.0 °F - 51.1 °F 26% 29.77 in 10.0 mi SW 13.8 mph - N/A   Clear
12:53 PM 97.0 °F - 42.1 °F 15% 29.75 in 10.0 mi SSW 10.4 mph 17.3 mph N/A   Clear
1:53 PM 98.1 °F - 28.9 °F 9% 29.74 in 10.0 mi SSW 15.0 mph 23.0 mph N/A   Clear
2:53 PM 99.0 °F - 30.0 °F 9% 29.73 in 10.0 mi SSW 12.7 mph - N/A   Clear
3:53 PM 99.0 °F - 36.0 °F 11% 29.71 in 10.0 mi SSW 18.4 mph 23.0 mph N/A   Clear
4:53 PM 99.0 °F - 28.0 °F 8% 29.69 in 10.0 mi SSW 17.3 mph 24.2 mph N/A   Clear
5:53 PM 100.9 °F - 25.0 °F 7% 29.68 in 10.0 mi SSW 18.4 mph 23.0 mph N/A   Clear
6:53 PM 99.0 °F - 28.9 °F 8% 29.67 in 10.0 mi SSW 16.1 mph - N/A   Clear
7:53 PM 93.0 °F - 39.0 °F 15% 29.68 in 10.0 mi South 15.0 mph - N/A   Clear
8:53 PM 87.1 °F - 39.9 °F 19% 29.70 in 10.0 mi South 11.5 mph - N/A   Clear
9:53 PM 87.1 °F 85.3 °F 55.0 °F 33% 29.73 in 10.0 mi South 16.1 mph - N/A   Clear
10:53 PM 81.0 °F 81.7 °F 61.0 °F 50% 29.77 in 10.0 mi South 17.3 mph 26.5 mph N/A   Clear
11:53 PM 80.1 °F - 48.9 °F 34% 29.77 in 10.0 mi South 16.1 mph - N/A   Clear